Mt. Pocono, PA

7:58 AM EDT on June 26, 2017 (GMT -0400)
Pocono Mountains Municipal

Weather History for KMPO - July, 2013

Change the Weather History Date:

Saturday, July 13, 2013

  Actual Average Record
Temperature  
Mean Temperature 69 °F 68 °F  
Max Temperature 75 °F 78 °F 89 °F (1952)
Min Temperature 62 °F 59 °F 42 °F (1978)
Degree Days  
Heating Degree Days 0 1  
Month to date heating degree days 0 13  
Since 1 June heating degree days 76 113  
Since 1 July heating degree days 0 13  
Cooling Degree Days 4 4  
Month to date cooling degree days 111 51  
Year to date cooling degree days 224 132  
Since 1 June cooling degree days 192 113  
Growing Degree Days 18 (Base 50)    
Moisture  
Dew Point 65 °F    
Average Humidity 92    
Maximum Humidity 100    
Minimum Humidity 84    
Precipitation  
Precipitation 0.12 in 0.15 in 1.48 in (2005)
Month to date precipitation 4.21 1.63  
Year to date precipitation 27.41 23.51  
Sea Level Pressure  
Sea Level Pressure 30.24 in    
Wind  
Wind Speed 6 mph (East)    
Max Wind Speed 16 mph    
Max Gust Speed 21 mph    
Visibility 4 miles    
Events Fog , Rain    
T = Trace of Precipitation, MM = Missing Value Source: NWS Daily Summary

Daily Weather History Graph

Daily Weather History Graph

Search for Another Location

Airport or City:

Trip Planner

Search our weather history database for the weather conditions in past years. The results will help you decide how hot, cold, wet, or windy it might be!

Date:

Astronomy

Jul. 13, 2013 Rise Set
Actual Time 5:40 AM EDT 8:33 PM EDT
Civil Twilight 5:07 AM EDT 9:06 PM EDT
Nautical Twilight 4:26 AM EDT 9:47 PM EDT
Astronomical Twilight 3:38 AM EDT 10:35 PM EDT
Moon 10:57 AM EDT (7/13) 11:09 PM EDT (7/13)
Length of Visible Light 15h 58m
Length of Day
14h 53m
Waxing Crescent, 25% of the Moon is Illuminated
Jul 13
Waxing Crescent
Jul 15
First Quarter
Jul 22
Full
Jul 29
Last Quarter
Aug 6
New

Hourly Weather History & Observations

Time (EDT) Temp. Dew Point Humidity Pressure Visibility Wind Dir Wind Speed Gust Speed Precip Events Conditions
12:00 AM 64.4 °F 62.6 °F 94% 30.15 in 1.8 mi ENE 10.4 mph 19.6 mph 0.02 in Rain Rain
12:15 AM 64.4 °F 62.6 °F 94% 30.15 in 2.0 mi ENE 17.3 mph 23.0 mph 0.04 in Rain Light Rain
12:31 AM 64.4 °F 62.6 °F 94% 30.15 in 1.8 mi ENE 17.3 mph 23.0 mph 0.09 in Rain Rain
12:41 AM 64.4 °F 62.6 °F 94% 30.15 in 2.5 mi ENE 12.7 mph - 0.11 in Rain Light Rain
12:50 AM 64.4 °F 62.6 °F 94% 30.16 in 4.0 mi ENE 10.4 mph - 0.11 in Rain Light Rain
12:53 AM 64.0 °F 62.1 °F 93% 30.13 in 5.0 mi East 10.4 mph - 0.11 in Rain Light Rain
1:08 AM 64.4 °F 62.6 °F 94% 30.16 in 3.0 mi ENE 13.8 mph - 0.01 in Rain Light Rain
1:53 AM 63.0 °F 61.0 °F 93% 30.13 in 4.0 mi ENE 9.2 mph - 0.03 in Rain Light Rain
2:35 AM 62.6 °F 60.8 °F 94% 30.16 in 2.5 mi ENE 9.2 mph 19.6 mph 0.00 in   Overcast
2:53 AM 62.1 °F 60.1 °F 93% 30.13 in 1.8 mi ENE 11.5 mph 18.4 mph 0.01 in Rain Light Rain
3:01 AM 62.6 °F 60.8 °F 94% 30.16 in 2.5 mi East 11.5 mph - 0.00 in Rain Light Rain
3:17 AM 62.6 °F 60.8 °F 94% 30.15 in 1.8 mi East 11.5 mph - 0.01 in Rain Light Rain
3:35 AM 62.6 °F 60.8 °F 94% 30.16 in 0.8 mi East 11.5 mph - 0.02 in Rain Light Rain
3:49 AM 62.6 °F 60.8 °F 94% 30.16 in 1.0 mi East 12.7 mph - 0.02 in Rain Light Rain
3:53 AM 62.1 °F 60.1 °F 93% 30.14 in 0.8 mi East 11.5 mph - 0.02 in   Mist
4:05 AM 62.6 °F 60.8 °F 94% 30.17 in 0.2 mi East 9.2 mph - N/A Fog Fog
4:53 AM 62.1 °F 61.0 °F 96% 30.16 in 0.2 mi East 10.4 mph - 0.02 in Fog , Rain Light Rain
5:53 AM 62.1 °F 61.0 °F 96% 30.18 in 0.2 mi East 8.1 mph - 0.01 in Fog , Rain Light Rain
6:28 AM 62.6 °F 60.8 °F 94% 30.21 in 0.8 mi East 6.9 mph - 0.00 in Rain Light Rain
6:37 AM 62.6 °F 60.8 °F 94% 30.21 in 0.2 mi East 8.1 mph - 0.01 in Fog , Rain Light Rain
6:53 AM 62.1 °F 61.0 °F 96% 30.20 in 0.2 mi East 8.1 mph - 0.01 in Fog , Rain Light Rain
7:04 AM 62.6 °F 60.8 °F 94% 30.22 in 0.8 mi East 9.2 mph - 0.01 in Rain Light Rain
7:11 AM 62.6 °F 60.8 °F 94% 30.22 in 2.0 mi East 6.9 mph - 0.01 in Rain Light Rain
7:20 AM 62.6 °F 60.8 °F 94% 30.22 in 9.0 mi East 9.2 mph - 0.02 in   Overcast
7:29 AM 62.6 °F 60.8 °F 94% 30.22 in 1.5 mi East 9.2 mph - 0.02 in Rain Light Rain
7:39 AM 62.6 °F 60.8 °F 94% 30.23 in 0.5 mi East 8.1 mph - 0.02 in Fog Fog
7:53 AM 62.1 °F 61.0 °F 96% 30.22 in 0.2 mi East 8.1 mph - 0.02 in Fog Fog
8:53 AM 63.0 °F 62.1 °F 97% 30.24 in 0.2 mi East 5.8 mph - N/A Fog Fog
9:53 AM 63.0 °F 63.0 °F 100% 30.25 in 0.2 mi East 6.9 mph - N/A Fog Fog
10:53 AM 64.0 °F 63.0 °F 96% 30.26 in 0.2 mi ESE 5.8 mph - N/A Fog Fog
11:53 AM 64.9 °F 64.0 °F 97% 30.28 in 0.2 mi East 4.6 mph - N/A Fog Fog
12:53 PM 66.9 °F 66.0 °F 97% 30.29 in 0.2 mi ESE 5.8 mph - 0.00 in Fog Fog
1:53 PM 66.9 °F 66.0 °F 97% 30.29 in 0.2 mi Calm Calm - 0.00 in Fog , Rain Light Rain
2:51 PM 69.8 °F 66.2 °F 88% 30.31 in 1.0 mi East 5.8 mph - 0.00 in   Mist
2:53 PM 69.1 °F 66.9 °F 93% 30.29 in 1.2 mi East 4.6 mph - 0.00 in   Overcast
3:06 PM 69.8 °F 68.0 °F 94% 30.30 in 3.0 mi ENE 4.6 mph - N/A   Overcast
3:33 PM 71.6 °F 68.0 °F 88% 30.30 in 10.0 mi SE 6.9 mph - N/A   Overcast
3:53 PM 72.0 °F 66.9 °F 84% 30.28 in 10.0 mi SE 5.8 mph - N/A   Overcast
4:03 PM 73.4 °F 68.0 °F 83% 30.30 in 9.0 mi SE 6.9 mph - N/A   Mostly Cloudy
4:13 PM 73.4 °F 68.0 °F 83% 30.30 in 10.0 mi ESE 5.8 mph - N/A   Mostly Cloudy
4:19 PM 73.4 °F 68.0 °F 83% 30.30 in 10.0 mi SE 5.8 mph - N/A   Mostly Cloudy
4:53 PM 73.9 °F 68.0 °F 82% 30.29 in 10.0 mi SE 5.8 mph - N/A   Overcast
5:37 PM 73.4 °F 69.8 °F 88% 30.31 in 10.0 mi East 6.9 mph - N/A   Overcast
5:53 PM 73.9 °F 68.0 °F 82% 30.28 in 10.0 mi ESE 4.6 mph - N/A   Overcast
6:53 PM 73.9 °F 68.0 °F 82% 30.30 in 10.0 mi ESE 5.8 mph - N/A   Scattered Clouds
7:53 PM 73.0 °F 69.1 °F 87% 30.31 in 9.0 mi ESE 5.8 mph - N/A   Mostly Cloudy
8:09 PM 71.6 °F 69.8 °F 94% 30.33 in 7.0 mi East 5.8 mph - N/A   Scattered Clouds
8:20 PM 71.6 °F 69.8 °F 94% 30.33 in 6.0 mi ESE 4.6 mph - N/A   Mostly Cloudy
8:32 PM 71.6 °F 69.8 °F 94% 30.33 in 5.0 mi ESE 4.6 mph - N/A   Mostly Cloudy
8:53 PM 71.1 °F 69.1 °F 93% 30.32 in 5.0 mi ESE 4.6 mph - N/A   Overcast
9:28 PM 71.6 °F 69.8 °F 94% 30.34 in 4.0 mi ESE 6.9 mph - N/A   Overcast
9:53 PM 71.1 °F 69.1 °F 93% 30.33 in 4.0 mi SE 6.9 mph - N/A   Overcast
10:19 PM 71.6 °F 69.8 °F 94% 30.35 in 2.5 mi SSE 6.9 mph - N/A   Overcast
10:53 PM 71.1 °F 69.1 °F 93% 30.33 in 3.0 mi ESE 6.9 mph - N/A   Overcast
11:48 PM 69.8 °F 69.8 °F 100% 30.35 in 2.5 mi South 3.5 mph - N/A   Overcast
11:53 PM 71.1 °F 69.1 °F 93% 30.33 in 3.0 mi Calm Calm - N/A   Overcast
11:59 PM 69.8 °F 69.8 °F 100% 30.35 in 1.8 mi Calm Calm - N/A   Overcast